When you browse on this site, cookies collect data to enhance your experience and personalize the content and advertising you see.
Visit our Privacy Policy to learn more. By continuing to use the site, you agree to this use of cookies and data.
  • In France
  • List of Countries
  • For 7 days
  • Water Temperature
  • Satellite Maps
  • Weather Map
  • Weather Widgets
  • user-avatar
    Login

    Hourly Weather Ario de Rayon

    Today, 19 July, Friday

    Time Temperature Precipitation Wind Pressure Humidity
    00:00 +18°C° 0.1 mm 1 mps 632 mmHg 93%
    01:00 +18°C° 0.1 mm 1 mps 632 mmHg 93%
    02:00 +16°C° 0.1 mm 0 mps 632 mmHg 92%
    03:00 +16°C° 0 mm 0 mps 632 mmHg 92%
    04:00 +16°C° 0 mm 0 mps 632 mmHg 92%
    05:00 +15°C° 0 mm 0 mps 632 mmHg 92%
    06:00 +17°C° 0 mm 0 mps 633 mmHg 87%
    07:00 +19°C° 0 mm 0 mps 634 mmHg 82%
    08:00 +21°C° 0 mm 0 mps 635 mmHg 77%
    09:00 +23°C° 0.3 mm 0 mps 635 mmHg 69%
    10:00 +25°C° 0.3 mm 0 mps 636 mmHg 62%
    11:00 +29°C° 0.3 mm 1 mps 636 mmHg 55%
    12:00 +29°C° 0.8 mm 1 mps 635 mmHg 56%
    13:00 +28°C° 0.8 mm 1 mps 634 mmHg 57%
    14:00 +28°C° 0.8 mm 1 mps 633 mmHg 58%
    15:00 +26°C° 1.1 mm 1 mps 633 mmHg 67%
    16:00 +24°C° 1.1 mm 2 mps 632 mmHg 76%
    17:00 +21°C° 1.1 mm 2 mps 631 mmHg 84%
    18:00 +20°C° 3.2 mm 2 mps 631 mmHg 88%
    19:00 +19°C° 3.2 mm 2 mps 632 mmHg 91%
    20:00 +18°C° 3.2 mm 2 mps 632 mmHg 95%
    21:00 +17°C° 0.7 mm 2 mps 632 mmHg 95%
    22:00 +18°C° 0.7 mm 1 mps 632 mmHg 95%
    23:00 +18°C° 0.7 mm 1 mps 633 mmHg 95%

    Tomorrow, 20 July, Saturday

    Time Temperature Precipitation Wind Pressure Humidity
    00:00 +18°C° 0.2 mm 1 mps 632 mmHg 95%
    01:00 +18°C° 0.2 mm 1 mps 632 mmHg 95%
    02:00 +16°C° 0.2 mm 0 mps 632 mmHg 95%
    03:00 +16°C° 0.1 mm 0 mps 632 mmHg 95%
    04:00 +16°C° 0.1 mm 0 mps 632 mmHg 95%
    05:00 +16°C° 0.1 mm 0 mps 632 mmHg 95%
    06:00 +16°C° 0.2 mm 0 mps 632 mmHg 94%
    07:00 +17°C° 0.2 mm 0 mps 633 mmHg 94%
    08:00 +17°C° 0.2 mm 0 mps 633 mmHg 93%
    09:00 +19°C° 0.1 mm 0 mps 634 mmHg 84%
    10:00 +21°C° 0.1 mm 0 mps 634 mmHg 75%
    11:00 +24°C° 0.1 mm 0 mps 635 mmHg 66%
    12:00 +25°C° 0.9 mm 1 mps 634 mmHg 69%
    13:00 +25°C° 0.9 mm 1 mps 633 mmHg 72%
    14:00 +25°C° 0.9 mm 1 mps 632 mmHg 75%
    15:00 +24°C° 1.6 mm 1 mps 632 mmHg 80%
    16:00 +23°C° 1.6 mm 1 mps 631 mmHg 85%
    17:00 +20°C° 1.6 mm 0 mps 631 mmHg 90%
    18:00 +19°C° 1.7 mm 0 mps 631 mmHg 92%
    19:00 +18°C° 1.7 mm 0 mps 632 mmHg 94%
    20:00 +17°C° 1.7 mm 0 mps 632 mmHg 96%
    21:00 +17°C° 0.9 mm 0 mps 632 mmHg 96%
    22:00 +17°C° 0.9 mm 0 mps 632 mmHg 96%
    23:00 +17°C° 0.9 mm 0 mps 632 mmHg 96%

    Day after tomorrow, 21 July, Sunday

    Time Temperature Precipitation Wind Pressure Humidity
    00:00 +17°C° 0.4 mm 0 mps 632 mmHg 96%
    01:00 +16°C° 0.4 mm 0 mps 632 mmHg 96%
    02:00 +16°C° 0.4 mm 0 mps 632 mmHg 96%
    03:00 +16°C° 0.1 mm 0 mps 632 mmHg 96%
    04:00 +16°C° 0.1 mm 0 mps 632 mmHg 95%
    05:00 +16°C° 0.1 mm 0 mps 632 mmHg 95%
    06:00 +17°C° 0.2 mm 0 mps 633 mmHg 92%
    07:00 +18°C° 0.2 mm 0 mps 633 mmHg 89%
    08:00 +19°C° 0.2 mm 0 mps 634 mmHg 86%
    09:00 +20°C° 0.6 mm 0 mps 634 mmHg 80%
    10:00 +24°C° 0.6 mm 1 mps 635 mmHg 74%
    11:00 +26°C° 0.6 mm 1 mps 635 mmHg 68%
    12:00 +25°C° 1.3 mm 1 mps 635 mmHg 71%
    13:00 +25°C° 1.3 mm 1 mps 634 mmHg 74%
    14:00 +25°C° 1.3 mm 1 mps 634 mmHg 77%
    15:00 +24°C° 1 mm 1 mps 633 mmHg 80%
    16:00 +21°C° 1 mm 0 mps 633 mmHg 83%
    17:00 +21°C° 1 mm 0 mps 633 mmHg 86%
    18:00 +19°C° 0.3 mm 0 mps 633 mmHg 88%
    19:00 +18°C° 0.3 mm 0 mps 633 mmHg 89%
    20:00 +17°C° 0.3 mm 0 mps 633 mmHg 90%
    21:00 +17°C° 0.2 mm 0 mps 633 mmHg 92%
    22:00 +17°C° 0.2 mm 0 mps 633 mmHg 93%
    23:00 +16°C° 0.2 mm 0 mps 633 mmHg 94%

    22 July, Monday

    Time Temperature Precipitation Wind Pressure Humidity
    00:00 +16°C° 0 mm 0 mps 633 mmHg 94%
    01:00 +16°C° 0 mm 0 mps 633 mmHg 95%
    02:00 +15°C° 0 mm 0 mps 632 mmHg 95%
    03:00 +15°C° 0 mm 0 mps 632 mmHg 95%
    04:00 +15°C° 0 mm 0 mps 632 mmHg 95%
    05:00 +15°C° 0 mm 0 mps 632 mmHg 94%
    06:00 +17°C° 0 mm 0 mps 633 mmHg 89%
    07:00 +19°C° 0 mm 0 mps 634 mmHg 84%
    08:00 +21°C° 0 mm 0 mps 635 mmHg 79%
    09:00 +22°C° 0.7 mm 0 mps 635 mmHg 74%
    10:00 +24°C° 0.7 mm 0 mps 636 mmHg 69%
    11:00 +26°C° 0.7 mm 0 mps 636 mmHg 64%
    12:00 +28°C° 1.1 mm 1 mps 635 mmHg 65%
    13:00 +27°C° 1.1 mm 1 mps 634 mmHg 65%
    14:00 +27°C° 1.1 mm 1 mps 634 mmHg 65%
    15:00 +26°C° 1.3 mm 1 mps 633 mmHg 71%
    16:00 +25°C° 1.3 mm 1 mps 633 mmHg 76%
    17:00 +22°C° 1.3 mm 0 mps 632 mmHg 82%
    18:00 +23°C° 0.8 mm 1 mps 632 mmHg 85%
    19:00 +21°C° 0.8 mm 1 mps 632 mmHg 88%
    20:00 +20°C° 0.8 mm 1 mps 632 mmHg 91%
    21:00 +19°C° 0.5 mm 1 mps 632 mmHg 92%
    22:00 +17°C° 0.5 mm 0 mps 633 mmHg 92%
    23:00 +17°C° 0.5 mm 0 mps 633 mmHg 92%

    23 July, Tuesday

    Time Temperature Precipitation Wind Pressure Humidity
    00:00 +17°C° 1.1 mm 0 mps 633 mmHg 92%
    01:00 +17°C° 1.1 mm 0 mps 633 mmHg 93%
    02:00 +17°C° 1.1 mm 0 mps 632 mmHg 94%
    03:00 +17°C° 0.9 mm 0 mps 632 mmHg 94%
    04:00 +17°C° 0.9 mm 0 mps 632 mmHg 95%
    05:00 +17°C° 0.9 mm 0 mps 633 mmHg 96%
    06:00 +18°C° 0.7 mm 0 mps 633 mmHg 95%
    07:00 +18°C° 0.7 mm 0 mps 634 mmHg 93%
    08:00 +19°C° 0.7 mm 0 mps 634 mmHg 92%
    09:00 +20°C° 1.4 mm 0 mps 634 mmHg 89%
    10:00 +21°C° 1.4 mm 0 mps 634 mmHg 86%
    11:00 +23°C° 1.4 mm 0 mps 635 mmHg 83%
    12:00 +23°C° 2.2 mm 0 mps 634 mmHg 81%
    13:00 +24°C° 2.2 mm 0 mps 633 mmHg 79%
    14:00 +24°C° 2.2 mm 0 mps 633 mmHg 77%
    15:00 +25°C° 1.8 mm 1 mps 632 mmHg 81%
    16:00 +23°C° 1.8 mm 1 mps 632 mmHg 85%
    17:00 +22°C° 1.8 mm 1 mps 631 mmHg 88%
    18:00 +21°C° 0.2 mm 1 mps 632 mmHg 89%
    19:00 +20°C° 0.2 mm 1 mps 632 mmHg 91%
    20:00 +19°C° 0.2 mm 1 mps 632 mmHg 92%
    21:00 +19°C° 0 mm 1 mps 632 mmHg 92%
    22:00 +19°C° 0 mm 1 mps 633 mmHg 92%
    23:00 +18°C° 0 mm 1 mps 633 mmHg 91%

    24 July, Wednesday

    Time Temperature Precipitation Wind Pressure Humidity
    00:00 +18°C° 0 mm 1 mps 632 mmHg 92%
    01:00 +16°C° 0 mm 1 mps 632 mmHg 92%
    02:00 +16°C° 0 mm 1 mps 632 mmHg 93%
    03:00 +16°C° 0 mm 1 mps 632 mmHg 93%
    04:00 +16°C° 0 mm 1 mps 632 mmHg 93%
    05:00 +14°C° 0 mm 0 mps 632 mmHg 94%
    06:00 +16°C° 0 mm 0 mps 633 mmHg 89%
    07:00 +18°C° 0 mm 0 mps 633 mmHg 85%
    08:00 +20°C° 0 mm 0 mps 634 mmHg 81%
    09:00 +22°C° 0.3 mm 0 mps 635 mmHg 74%
    10:00 +26°C° 0.3 mm 1 mps 635 mmHg 67%
    11:00 +28°C° 0.3 mm 1 mps 635 mmHg 60%
    12:00 +28°C° 1.3 mm 1 mps 635 mmHg 63%
    13:00 +27°C° 1.3 mm 1 mps 634 mmHg 66%
    14:00 +27°C° 1.3 mm 1 mps 633 mmHg 68%
    15:00 +26°C° 1.5 mm 1 mps 632 mmHg 74%
    16:00 +24°C° 1.5 mm 1 mps 632 mmHg 79%
    17:00 +23°C° 1.5 mm 1 mps 632 mmHg 85%
    18:00 +22°C° 0.7 mm 1 mps 632 mmHg 87%
    19:00 +20°C° 0.7 mm 1 mps 632 mmHg 90%
    20:00 +19°C° 0.7 mm 1 mps 631 mmHg 92%
    21:00 +19°C° 1.3 mm 1 mps 632 mmHg 93%
    22:00 +18°C° 1.3 mm 1 mps 632 mmHg 94%
    23:00 +18°C° 1.3 mm 1 mps 632 mmHg 95%
    Show more